Regional Weather Roundup
Issued by NWS

Home | Current Version | Previous Version | Text Only | Print | Product List | Glossary Off
Versions: 1 2 3 4 5 6 7 8 9 10 11 12 13 14 15 16 17 18 19 20 21 22 23 24 25 26 27

000
ASUS45 KBOU 031207
RWRCO

WEATHER ROUNDUP FOR COLORADO
NATIONAL WEATHER SERVICE DENVER/BOULDER CO
600 AM MDT TUE MAY 03 2016

NOTE: "FAIR" INDICATES FEW OR NO CLOUDS BELOW 12000 FEET WITH NO
SIGNIFICANT WEATHER AND/OR OBSTRUCTIONS TO VISIBILITY.

COZ001>005-013-030-031-031300-
...NORTHWEST COLORADO...

CITY           SKY/WX    TMP DP  RH WIND       PRES   REMARKS
CRAIG          FAIR      27  24  89 CALM      30.27R
HAYDEN         FAIR      32  21  64 E8        30.26R WCI  25
MEEKER         FAIR      30  24  78 CALM      30.26S
MOUNT WERNER   NOT AVBL
STEAMBOAT SPGS FAIR      30  22  72 CALM      30.27R
WALDEN         FAIR      19  14  79 SE8       30.30R WCI   9
$$

COZ006>008-011-031300-
...WEST CENTRAL VALLEYS...

CITY           SKY/WX    TMP DP  RH WIND       PRES   REMARKS
GRAND JUNCTION FAIR      37  34  89 CALM      30.18S
MONTROSE       FAIR      36  30  79 SE7       30.24R
EAGLE          FAIR      30  27  86 CALM      30.30R
RIFLE          FAIR      35  29  78 CALM      30.24R
DELTA          NOT AVBL
NUCLA          NOT AVBL
$$

COZ017>023-064>068-031300-
...SOUTHWEST COLORADO...

CITY           SKY/WX    TMP DP  RH WIND       PRES   REMARKS
DURANGO        FAIR      30  28  92 CALM      30.20S
CORTEZ         FAIR      31  28  89 NE5       30.20S WCI  26
PAGOSA SPRINGS FAIR      31  31 100 CALM      30.24R
TELLURIDE      FAIR      30  26  83 SE5       30.30S WCI  26
WOLF CREEK PAS FAIR      25  16  68 N6        30.36R WCI  18
$$

COZ009-010-012-014-032>034-037-058>063-031300-
...CENTRAL COLORADO...

CITY           SKY/WX    TMP DP  RH WIND       PRES   REMARKS
ASPEN          FAIR      30  23  75 S6        30.26R WCI  24
BUENA VISTA    FAIR      32  23  69 CALM      30.23S
COPPER MTN     NOT AVBL
BERTHOUD PASS  MOCLDY    14   5  67 N16G25    30.31S WCI  -2
COTTONWOOD PAS FAIR      36  18  48 W12       30.27S
GUNNISON       FAIR      27  21  80 CALM      30.29S
KREMMLING      FAIR      23  19  86 E3        30.30R
LEADVILLE      FAIR      21  15  78 NE7       30.28S WCI  12
MONARCH PASS   FAIR      23  18  80 MISG      30.41F
SALIDA         FAIR      32  26  77 NW5       30.30S WCI  27
SUNLIGHT       FAIR      32  19  59 N7          N/A  WCI  26
WILKERSON PASS FAIR      23  18  80 NE9       30.32S WCI  13
$$

COZ069>075-031300-
...SAN LUIS VALLEY/SANGRE DE CRISTO MOUNTAINS...

CITY           SKY/WX    TMP DP  RH WIND       PRES   REMARKS
ALAMOSA        FAIR      26  25  96 SW6       30.21S WCI  19
LA VETA PASS   FAIR      30  27  86 W5        30.27R WCI  25
SAGUACHE       FAIR      34  28  80 NW15      30.22S WCI  24
$$

COZ035-036-038>040-031300-
...NORTHERN COLORADO FRONT RANGE...

CITY           SKY/WX    TMP DP  RH WIND       PRES   REMARKS
DENVER INTL AP FAIR      41  27  57 W12       30.18R
DMNS CITY PARK   N/A     38  29  71 E8G15     30.19S
AURORA         FAIR      37  29  71 SW7       30.20R
FRONT RANGE AP NOT AVBL
ERIE MUNI ARPT FAIR      37  31  81 CALM      30.19R
BOULDER MUN AP FAIR      43  27  52 SW6       30.18S
CENTENNIAL     FAIR      40  27  59 W5        30.19R
BROOMFIELD     FAIR      43  28  56 W10       30.19S
FORT COLLINS   FAIR      43  28  56 N7        30.18S
LONGMONT       FAIR      39  30  69 CALM      30.20R HAZE
$$

COZ041-046-047-076>085-087-088-031300-
...PIKES PEAK/PALMER DIVIDE AND SOUTHERN FOOTHILLS...

CITY           SKY/WX    TMP DP  RH WIND       PRES   REMARKS
COLO. SPRINGS  FAIR      41  25  53 N12       30.20R
A. F. ACADEMY  FAIR      32  25  74 N7        30.20R WCI  26
SCHRIEVER AFB  NOT AVBL
ELLICOTT       FAIR     N/A N/A N/A N5        30.18R
FALCON         FAIR      37  26  63 N8        30.21R
FORT CARSON    FAIR      39  28  66 NW8       30.18R
LIMON          FAIR      34  31  88 NW10      30.14S WCI  26
MONUMENT HILL  FAIR      32  27  80 W9        30.22S WCI  24
TRINIDAD       CLOUDY    37  32  82 W12       30.16R
$$

COZ042>045-048>051-090-091-031300-
...NORTHEAST COLORADO...

CITY           SKY/WX    TMP DP  RH WIND       PRES   REMARKS
GREELEY ARPT   FAIR      41  30  65 NW13      30.16S
AKRON          FAIR      38  32  79 NW12      30.11R
BURLINGTON     MOCLDY    42  34  73 NW9       30.08R
WRAY           NOT AVBL
STERLING       FAIR      39  36  87 NW9       30.09R
HOLYOKE        NOT AVBL
FORT MORGAN    FAIR      40  32  73 NW14      30.13S
$$

COZ086-089-092>099-031300-
...SOUTHEAST COLORADO...

CITY           SKY/WX    TMP DP  RH WIND       PRES   REMARKS
PUEBLO         FAIR      41  31  67 W5        30.16R
LA JUNTA       CLOUDY    49  34  56 N5        30.13R
LAMAR          CLOUDY    47  37  68 NW6       30.07F
SPRINGFIELD      N/A     46  36  68 N18       30.09R
$$




USA.gov is the U.S. government's official web portal to all federal, state and local government web resources and services.